Regional Weather Roundup
Issued by NWS

Home | Current Version | Previous Version | Text Only | Print | Product List | Glossary On
Versions: 1 2 3 4 5 6 7 8 9 10 11 12 13 14 15 16 17 18 19 20 21 22 23 24 25 26 27 28 29 30 31 32 33 34 35 36 37 38 39 40 41 42 43 44 45 46 47 48 49 50
000
ASUS43 KFSD 220202
RWRSD

WEATHER ROUNDUP FOR SOUTH DAKOTA
NATIONAL WEATHER SERVICE SIOUX FALLS SD
900 PM CDT MON AUG 21 2017

NOTE: "FAIR" INDICATES FEW OR NO CLOUDS BELOW 12,000 FEET WITH NO
SIGNIFICANT WEATHER AND/OR OBSTRUCTIONS TO VISIBILITY.


SDZ001>005-009-010-012>017-220300-
NORTHWEST AND NORTH CENTRAL SOUTH DAKOTA

CITY           SKY/WX    TMP DP  RH WIND       PRES   REMARKS
BUFFALO          N/A     67  40  37 N8        30.10R
FAITH            N/A     66  46  48 N7        30.12R
MOBRIDGE       CLEAR     62  51  67 N7        30.05R
$$

SDZ012>016-024>037-041>051-057-063-072>074-220300-
SOUTHWEST AND SOUTH CENTRAL SOUTH DAKOTA

CITY           SKY/WX    TMP DP  RH WIND       PRES   REMARKS
RAPID CTY ARPT CLEAR     63  42  46 NE8       30.15R
PIERRE         CLEAR     68  51  54 N12       30.04R
CUSTER         CLEAR     61  35  37 E16       30.27R
ELLSWORTH AFB  CLEAR     71  39  30 NE7       30.15R
PHILIP         CLEAR     67  44  43 N9        30.10R
PINE RIDGE     CLEAR     68  45  43 NE5       30.14S
SPEARFISH      FAIR      66  37  34 CALM      30.20R
WINNER         FAIR      68  62  81 N5        30.06R
$$

SDZ004>011-016>023-039-040-220300-
NORTHEAST SOUTH DAKOTA

CITY           SKY/WX    TMP DP  RH WIND       PRES   REMARKS
ABERDEEN       CLEAR     68  52  56 NW13      30.00R
WATERTOWN      CLEAR     66  60  81 W6        29.97R
BROOKINGS      CLEAR     66  62  87 W3        29.99R
SISSETON         N/A     65  60  84 NW7       29.94R
$$

SDZ017-020-022-023-036>040-048>070-220300-
SOUTHEAST SOUTH DAKOTA

CITY           SKY/WX    TMP DP  RH WIND       PRES   REMARKS
SIOUX FALLS    CLOUDY    68  66  93 W5        29.98S
HURON          CLEAR     65  60  84 NW7       29.99R
CHAMBERLAIN    CLEAR     73  59  59 NW9       30.03R
MITCHELL       CLEAR     70  65  84 CALM      30.00R
$$

ABBREVIATIONS USED IN REMARKS
   TC - TEMPERATURE IN CELSIUS
  WCI - WIND CHILL INDEX
   HX - HEAT INDEX
  VSB - VISIBILITY





USA.gov is the U.S. government's official web portal to all federal, state and local government web resources and services.